When you browse on this site, cookies collect data to enhance your experience and personalize the content and advertising you see.
Visit our Privacy Policy to learn more. By continuing to use the site, you agree to this use of cookies and data.
  • In Latvia
  • List of Countries
  • For 7 days
  • Water Temperature
  • Satellite Maps
  • Weather Map
  • Weather Widgets
  • user-avatar
    Login

    Hourly Weather Onex

    Today, 20 July, Saturday

    Time Temperature Precipitation Wind Pressure Humidity
    00:00 +20°C° 0 mm 1 mps 725 mmHg 77%
    01:00 +19°C° 0 mm 1 mps 725 mmHg 77%
    02:00 +19°C° 0 mm 1 mps 725 mmHg 77%
    03:00 +19°C° 0 mm 1 mps 725 mmHg 77%
    04:00 +20°C° 0 mm 1 mps 725 mmHg 76%
    05:00 +21°C° 0 mm 1 mps 725 mmHg 74%
    06:00 +22°C° 0 mm 1 mps 725 mmHg 73%
    07:00 +24°C° 0 mm 1 mps 726 mmHg 67%
    08:00 +25°C° 0 mm 2 mps 726 mmHg 61%
    09:00 +27°C° 0 mm 2 mps 726 mmHg 54%
    10:00 +28°C° 0 mm 2 mps 726 mmHg 49%
    11:00 +30°C° 0 mm 3 mps 726 mmHg 44%
    12:00 +31°C° 0 mm 3 mps 726 mmHg 38%
    13:00 +31°C° 0 mm 3 mps 726 mmHg 39%
    14:00 +31°C° 0 mm 3 mps 726 mmHg 40%
    15:00 +31°C° 0 mm 3 mps 726 mmHg 41%
    16:00 +29°C° 0.4 mm 3 mps 726 mmHg 53%
    17:00 +27°C° 0.4 mm 3 mps 726 mmHg 65%
    18:00 +23°C° 0.4 mm 4 mps 726 mmHg 77%
    19:00 +22°C° 0.8 mm 3 mps 727 mmHg 82%
    20:00 +21°C° 0.8 mm 3 mps 727 mmHg 87%
    21:00 +20°C° 0.8 mm 2 mps 728 mmHg 93%
    22:00 +20°C° 0.2 mm 2 mps 728 mmHg 92%
    23:00 +20°C° 0.2 mm 1 mps 728 mmHg 92%

    Tomorrow, 21 July, Sunday

    Time Temperature Precipitation Wind Pressure Humidity
    00:00 +20°C° 0.2 mm 1 mps 728 mmHg 92%
    01:00 +20°C° 0.1 mm 1 mps 728 mmHg 91%
    02:00 +20°C° 0.1 mm 1 mps 728 mmHg 91%
    03:00 +20°C° 0.1 mm 1 mps 728 mmHg 91%
    04:00 +21°C° 0 mm 1 mps 729 mmHg 89%
    05:00 +19°C° 0 mm 0 mps 729 mmHg 88%
    06:00 +20°C° 0 mm 0 mps 729 mmHg 87%
    07:00 +22°C° 0.1 mm 0 mps 729 mmHg 78%
    08:00 +26°C° 0.1 mm 1 mps 730 mmHg 69%
    09:00 +28°C° 0.1 mm 1 mps 730 mmHg 60%
    10:00 +29°C° 0.1 mm 1 mps 730 mmHg 57%
    11:00 +30°C° 0.1 mm 1 mps 730 mmHg 53%
    12:00 +32°C° 0.1 mm 1 mps 730 mmHg 49%
    13:00 +31°C° 0.2 mm 1 mps 730 mmHg 50%
    14:00 +31°C° 0.2 mm 1 mps 730 mmHg 52%
    15:00 +31°C° 0.2 mm 1 mps 730 mmHg 53%
    16:00 +30°C° 0.2 mm 1 mps 730 mmHg 62%
    17:00 +29°C° 0.2 mm 1 mps 730 mmHg 70%
    18:00 +27°C° 0.2 mm 1 mps 730 mmHg 79%
    19:00 +26°C° 0.3 mm 1 mps 730 mmHg 83%
    20:00 +24°C° 0.3 mm 1 mps 730 mmHg 87%
    21:00 +22°C° 0.3 mm 1 mps 731 mmHg 90%
    22:00 +22°C° 0 mm 1 mps 731 mmHg 91%
    23:00 +21°C° 0 mm 1 mps 730 mmHg 91%

    Day after tomorrow, 22 July, Monday

    Time Temperature Precipitation Wind Pressure Humidity
    00:00 +21°C° 0 mm 1 mps 730 mmHg 92%
    01:00 +21°C° 0 mm 1 mps 730 mmHg 92%
    02:00 +21°C° 0 mm 1 mps 730 mmHg 93%
    03:00 +20°C° 0 mm 1 mps 730 mmHg 93%
    04:00 +21°C° 0 mm 1 mps 730 mmHg 92%
    05:00 +22°C° 0 mm 1 mps 730 mmHg 91%
    06:00 +23°C° 0 mm 1 mps 730 mmHg 90%
    07:00 +25°C° 0 mm 1 mps 731 mmHg 82%
    08:00 +27°C° 0 mm 1 mps 731 mmHg 73%
    09:00 +29°C° 0 mm 1 mps 731 mmHg 64%
    10:00 +30°C° 0 mm 1 mps 731 mmHg 60%
    11:00 +31°C° 0 mm 1 mps 731 mmHg 55%
    12:00 +32°C° 0 mm 1 mps 730 mmHg 50%
    13:00 +33°C° 0 mm 1 mps 730 mmHg 49%
    14:00 +33°C° 0 mm 1 mps 730 mmHg 48%
    15:00 +33°C° 0 mm 1 mps 730 mmHg 47%
    16:00 +32°C° 0 mm 1 mps 730 mmHg 55%
    17:00 +30°C° 0 mm 1 mps 730 mmHg 63%
    18:00 +29°C° 0 mm 1 mps 729 mmHg 71%
    19:00 +27°C° 0 mm 1 mps 730 mmHg 73%
    20:00 +26°C° 0 mm 1 mps 730 mmHg 76%
    21:00 +24°C° 0 mm 1 mps 730 mmHg 79%
    22:00 +23°C° 0 mm 1 mps 730 mmHg 80%
    23:00 +23°C° 0 mm 1 mps 730 mmHg 81%

    23 July, Tuesday

    Time Temperature Precipitation Wind Pressure Humidity
    00:00 +22°C° 0 mm 1 mps 729 mmHg 82%
    01:00 +22°C° 0 mm 1 mps 729 mmHg 84%
    02:00 +21°C° 0 mm 1 mps 729 mmHg 85%
    03:00 +21°C° 0 mm 1 mps 729 mmHg 86%
    04:00 +22°C° 0 mm 1 mps 729 mmHg 84%
    05:00 +23°C° 0 mm 1 mps 729 mmHg 82%
    06:00 +22°C° 0 mm 0 mps 729 mmHg 80%
    07:00 +26°C° 0 mm 1 mps 729 mmHg 73%
    08:00 +28°C° 0 mm 1 mps 729 mmHg 65%
    09:00 +30°C° 0 mm 1 mps 729 mmHg 58%
    10:00 +31°C° 0 mm 1 mps 729 mmHg 53%
    11:00 +33°C° 0 mm 1 mps 729 mmHg 48%
    12:00 +34°C° 0 mm 1 mps 728 mmHg 44%
    13:00 +34°C° 0 mm 1 mps 728 mmHg 43%
    14:00 +34°C° 0 mm 1 mps 728 mmHg 42%
    15:00 +34°C° 0 mm 1 mps 727 mmHg 41%
    16:00 +32°C° 0 mm 1 mps 727 mmHg 50%
    17:00 +31°C° 0 mm 1 mps 727 mmHg 58%
    18:00 +27°C° 0 mm 0 mps 727 mmHg 66%
    19:00 +28°C° 0 mm 1 mps 727 mmHg 67%
    20:00 +26°C° 0 mm 1 mps 727 mmHg 68%
    21:00 +25°C° 0 mm 1 mps 728 mmHg 69%
    22:00 +24°C° 0 mm 1 mps 728 mmHg 71%
    23:00 +24°C° 0 mm 1 mps 727 mmHg 72%

    24 July, Wednesday

    Time Temperature Precipitation Wind Pressure Humidity
    00:00 +23°C° 0 mm 1 mps 727 mmHg 74%
    01:00 +23°C° 0 mm 1 mps 727 mmHg 75%
    02:00 +22°C° 0 mm 1 mps 727 mmHg 76%
    03:00 +20°C° 0 mm 0 mps 727 mmHg 76%
    04:00 +21°C° 0 mm 0 mps 727 mmHg 75%
    05:00 +22°C° 0 mm 0 mps 727 mmHg 74%
    06:00 +23°C° 0 mm 0 mps 728 mmHg 73%
    07:00 +25°C° 0 mm 0 mps 728 mmHg 66%
    08:00 +27°C° 0 mm 0 mps 728 mmHg 59%
    09:00 +29°C° 0 mm 0 mps 728 mmHg 52%
    10:00 +32°C° 0 mm 1 mps 727 mmHg 47%
    11:00 +34°C° 0 mm 1 mps 727 mmHg 42%
    12:00 +35°C° 0 mm 1 mps 727 mmHg 37%
    13:00 +35°C° 0 mm 1 mps 727 mmHg 36%
    14:00 +35°C° 0 mm 1 mps 727 mmHg 36%
    15:00 +35°C° 0 mm 1 mps 727 mmHg 35%
    16:00 +33°C° 0 mm 1 mps 727 mmHg 43%
    17:00 +31°C° 0 mm 1 mps 727 mmHg 52%
    18:00 +30°C° 0 mm 1 mps 726 mmHg 60%
    19:00 +28°C° 0 mm 1 mps 727 mmHg 60%
    20:00 +27°C° 0 mm 1 mps 727 mmHg 60%
    21:00 +26°C° 0 mm 1 mps 727 mmHg 61%
    22:00 +25°C° 0 mm 1 mps 727 mmHg 62%
    23:00 +24°C° 0 mm 1 mps 727 mmHg 64%

    25 July, Thursday

    Time Temperature Precipitation Wind Pressure Humidity
    00:00 +21°C° 0 mm 0 mps 727 mmHg 65%
    01:00 +23°C° 0 mm 1 mps 726 mmHg 66%
    02:00 +23°C° 0 mm 1 mps 726 mmHg 67%
    03:00 +22°C° 0 mm 1 mps 726 mmHg 67%
    04:00 +21°C° 0 mm 0 mps 726 mmHg 68%
    05:00 +22°C° 0 mm 0 mps 727 mmHg 68%
    06:00 +23°C° 0 mm 0 mps 727 mmHg 69%
    07:00 +27°C° 0 mm 1 mps 727 mmHg 62%
    08:00 +29°C° 0 mm 1 mps 727 mmHg 55%
    09:00 +32°C° 0 mm 1 mps 727 mmHg 48%
    10:00 +33°C° 0 mm 1 mps 727 mmHg 44%
    11:00 +34°C° 0 mm 1 mps 727 mmHg 41%
    12:00 +36°C° 0 mm 2 mps 727 mmHg 38%
    13:00 +36°C° 0 mm 2 mps 726 mmHg 38%
    14:00 +36°C° 0 mm 2 mps 726 mmHg 39%
    15:00 +36°C° 0 mm 2 mps 726 mmHg 39%
    16:00 +34°C° 0 mm 1 mps 726 mmHg 47%
    17:00 +32°C° 0 mm 1 mps 726 mmHg 55%
    18:00 +29°C° 0 mm 0 mps 726 mmHg 63%
    19:00 +29°C° 0.3 mm 1 mps 726 mmHg 66%
    20:00 +28°C° 0.3 mm 1 mps 726 mmHg 69%
    21:00 +26°C° 0.3 mm 1 mps 726 mmHg 72%
    22:00 +25°C° 0.5 mm 1 mps 726 mmHg 75%
    23:00 +24°C° 0.5 mm 1 mps 726 mmHg 78%
    Show more